Home   Weather   Incheon   Past weeks

Flag for South Korea Past Weather in Incheon, South Korea — Yesterday and Last 2 Weeks

Now
55 °F

Passing clouds.


Feels Like: 54 °F
Forecast: 54 / 64 °F
Wind: 7 mph from Southwest

Location: Incheon International Airport

Current Time: Apr 25, 2017 at 12:30:22 am

Latest Report: Apr 24, 2017 at 11:30 pm


Visibility: N/A

Pressure: 30.07 "Hg

Humidity: 67%

Dew Point: 45 °F

Location of IncheonLocation

Past Weather in Incheon — Graph

°F

Incheon Temperature Yesterday

Maximum temperature yesterday: 64 °F (at 11:00 am)
Minimum temperature yesterday: 43 °F (at 5:30 am)
Average temperature yesterday: 56 °F

High & Low Weather Summary for the Past Weeks

 TemperatureHumidityPressure
High70 °F (Apr 16, 2:30 pm)100% (Apr 16, 3:00 am)30.12 "Hg (Apr 16, 3:00 am)
Low43 °F (Apr 13, 3:00 am)10% (Apr 12, 2:30 am)29.42 "Hg (Apr 18, 11:00 am)
Average54 °F62%29.87 "Hg
* Reported Apr 9 11:00 pm — Apr 24 11:00 pm, Incheon, Weather by CustomWeather, © 2017

Note: Actual official high and low records may vary slightly from our data, if they occured in-between our weather recording intervals... More about our weather records

Advertising

Incheon Weather History for the Previous 24 Hours

Scroll right to see more
 ConditionsComfort  
Time TempWeatherWind HumidityBarometerVisibility
11:00 pm
Mon, Apr 24
55 °FPassing clouds.9 mph72%30.07 "HgN/A
10:30 pm57 °FPassing clouds.12 mph67%30.07 "HgN/A
10:00 pm54 °FClear.9 mph77%30.04 "Hg10 mi
9:30 pm54 °FClear.8 mph67%30.04 "Hg10 mi
9:00 pm55 °FClear.1 mph63%30.07 "Hg10 mi
8:30 pm57 °FClear.5 mph63%30.07 "Hg10 mi
8:00 pm57 °FSunny.2 mph63%30.07 "Hg10 mi
7:30 pm57 °FSunny.2 mph59%30.07 "Hg10 mi
7:00 pm57 °FPassing clouds.3 mph63%30.07 "HgN/A
6:30 pm57 °FPassing clouds.7 mph67%30.07 "HgN/A
6:00 pm59 °FSunny.10 mph63%30.07 "Hg10 mi
5:30 pm61 °FPassing clouds.16 mph63%30.07 "HgN/A
4:30 pm64 °FSunny.15 mph28%30.04 "Hg10 mi
4:00 pm64 °FSunny.17 mph28%30.04 "Hg10 mi
3:30 pm64 °FSunny.15 mph32%30.04 "Hg10 mi
3:00 pm64 °FSunny.14 mph40%30.07 "Hg10 mi
2:30 pm63 °FSunny.16 mph56%30.07 "Hg10 mi
2:00 pm64 °FBroken clouds.16 mph46%30.09 "HgN/A
1:30 pm64 °FBroken clouds.14 mph37%30.09 "HgN/A
12:30 pm64 °FBroken clouds.15 mph34%30.09 "HgN/A
11:30 am64 °FBroken clouds.15 mph32%30.09 "HgN/A
11:00 am64 °FSunny.16 mph32%30.09 "Hg10 mi
10:30 am63 °FPassing clouds.15 mph34%30.09 "HgN/A
10:00 am63 °FSunny.14 mph34%30.09 "Hg10 mi
9:30 am61 °FSunny.13 mph36%30.09 "Hg10 mi
9:00 am59 °FSunny.10 mph42%30.12 "Hg10 mi
8:30 am57 °FSunny.9 mph44%30.12 "Hg10 mi
8:00 am55 °FSunny.10 mph55%30.12 "Hg10 mi
7:30 am54 °FSunny.8 mph67%30.12 "Hg10 mi
7:00 am52 °FSunny.8 mph72%30.09 "Hg10 mi
6:30 am48 °FClear.7 mph76%30.09 "Hg10 mi
5:30 am43 °FClear.5 mph81%30.09 "Hg10 mi
5:00 am46 °FClear.6 mph76%30.09 "Hg10 mi
4:30 am48 °FClear.7 mph71%30.09 "Hg10 mi
4:00 am46 °FClear.7 mph76%30.09 "Hg10 mi
3:30 am50 °FClear.5 mph67%30.09 "Hg10 mi
3:00 am48 °FClear.7 mph76%30.09 "Hg10 mi
2:30 am48 °FClear.6 mph76%30.09 "Hg10 mi
2:00 am48 °FClear.5 mph71%30.09 "Hg10 mi
1:30 am46 °FClear.7 mph71%30.09 "Hg10 mi
1:00 am48 °FClear.5 mph62%30.09 "Hg10 mi
12:30 am52 °FClear.6 mph47%30.09 "Hg10 mi
12:00 am52 °FClear.6 mph50%30.09 "Hg10 mi
Weather by CustomWeather, © 2017

See weather overviewHow to use our weather pages